Location: B�hl
(48.6968°N, 8.1352°E)
Time: 10:35:35
(UTC+00:00)

SME Rocket - Pass Details

Date: 08 March 2021
Orbit: 550 x 2652 km, 99.9° (Epoch: 10 April)

Event Time Altitude Azimuth Distance (km) Brightness Sun altitude
Rises 19:21:04 0° 15° (NNE) 4,749 7.6 -20.2°
Reaches altitude 10° 19:24:28 10° 16° (NNE) 3,442 6.9 -20.8°
Maximum altitude 19:32:02 88° 105° (ESE) 974 3.9 -21.9°
Drops below altitude 10° 19:36:57 10° 197° (SSW) 2,273 5.9 -22.7°
Sets 19:38:50 0° 198° (SSW) 3,048 6.6 -23.0°
